WWW51 KPHL-KPIT

Flight info

Callsign WWW51
Flight time 0h 59m
Altitude 22000
Route MXE PENSY J110 VINSE DEMME5
Aircraft B736/M-SDE2E3FGHIRWXY/LB1

Departure

Time 2026-05-07 02:08
Airport Philadelphia International Airport (KPHL)

Arrival

Time 2026-05-07 03:08
Airport Pittsburgh International Airport (KPIT)
Time Latitude Longitude Altitude Speed Heading
2026-05-07 01:52 39.87510 -75.24194 19 ft 0 kts 102°
2026-05-07 01:59 39.87514 -75.24217 20 ft 2 kts 96°
2026-05-07 01:59 39.87508 -75.24237 20 ft 2 kts 19°
2026-05-07 01:59 39.87497 -75.24252 20 ft 3 kts 101°
2026-05-07 01:59 39.87501 -75.24266 21 ft 0 kts 157°
2026-05-07 02:02 39.87486 -75.24257 22 ft 10 kts 156°
2026-05-07 02:02 39.87445 -75.24243 22 ft 2 kts 169°
2026-05-07 02:02 39.87409 -75.24235 20 ft 0 kts 171°
2026-05-07 02:03 39.87378 -75.24230 20 ft 12 kts 173°
2026-05-07 02:04 39.87298 -75.24194 21 ft 12 kts 152°
2026-05-07 02:04 39.87245 -75.24159 22 ft 0 kts 153°
2026-05-07 02:04 39.87193 -75.24125 24 ft 14 kts 153°
2026-05-07 02:05 39.87098 -75.24081 21 ft 14 kts 166°
2026-05-07 02:05 39.87002 -75.24051 21 ft 14 kts 165°
2026-05-07 02:05 39.86917 -75.24011 20 ft 12 kts 139°
2026-05-07 02:05 39.86891 -75.23958 19 ft 0 kts 126°
2026-05-07 02:06 39.86890 -75.23956 19 ft 2 kts 126°
2026-05-07 02:07 39.86828 -75.23925 17 ft 13 kts 191°
2026-05-07 02:07 39.86786 -75.23992 15 ft 0 kts 252°
2026-05-07 02:07 39.86785 -75.23996 15 ft 9 kts 252°
2026-05-07 02:08 39.86693 -75.24458 15 ft 93 kts 256°
2026-05-07 02:08 39.86477 -75.25568 85 ft 152 kts 255°
2026-05-07 02:08 39.86226 -75.26970 728 ft 161 kts 253°
2026-05-07 02:08 39.85949 -75.28289 1933 ft 146 kts 253°
2026-05-07 02:09 39.85669 -75.29643 2684 ft 171 kts 253°
2026-05-07 02:09 39.85323 -75.31276 3020 ft 206 kts 252°
2026-05-07 02:09 39.84930 -75.33157 3674 ft 219 kts 253°
2026-05-07 02:09 39.84502 -75.35145 4453 ft 238 kts 253°
2026-05-07 02:10 39.84035 -75.37254 5523 ft 242 kts 253°
2026-05-07 02:10 39.83746 -75.39376 6716 ft 240 kts 271°
2026-05-07 02:10 39.83947 -75.41551 7814 ft 243 kts 275°
2026-05-07 02:10 39.84191 -75.43751 8904 ft 246 kts 275°
2026-05-07 02:11 39.84428 -75.45947 9613 ft 246 kts 274°
2026-05-07 02:11 39.84656 -75.48155 9936 ft 249 kts 274°
2026-05-07 02:11 39.84879 -75.50405 9968 ft 251 kts 273°
2026-05-07 02:11 39.85096 -75.52671 9966 ft 252 kts 273°
2026-05-07 02:12 39.85305 -75.54914 9979 ft 252 kts 273°
2026-05-07 02:12 39.85512 -75.57180 9977 ft 251 kts 273°
2026-05-07 02:12 39.85716 -75.59432 10310 ft 245 kts 272°
2026-05-07 02:12 39.85913 -75.61654 10718 ft 259 kts 272°
2026-05-07 02:13 39.86126 -75.64143 10933 ft 289 kts 273°
2026-05-07 02:13 39.86356 -75.66839 11177 ft 315 kts 273°
2026-05-07 02:13 39.86606 -75.69730 11839 ft 324 kts 273°
2026-05-07 02:13 39.86863 -75.72673 12781 ft 326 kts 273°
2026-05-07 02:14 39.87117 -75.75595 13663 ft 329 kts 273°
2026-05-07 02:14 39.87168 -75.76191 13811 ft 330 kts 273°
2026-05-07 02:14 39.87342 -75.78208 14304 ft 333 kts 273°
2026-05-07 02:14 39.87401 -75.78896 14482 ft 334 kts 274°
2026-05-07 02:15 39.87605 -75.81274 15040 ft 338 kts 274°
2026-05-07 02:15 39.87867 -75.84345 15775 ft 342 kts 274°
2026-05-07 02:15 39.88131 -75.87451 16514 ft 345 kts 274°
2026-05-07 02:15 39.88396 -75.90577 17229 ft 349 kts 274°
2026-05-07 02:16 39.88659 -75.93705 17914 ft 353 kts 275°
2026-05-07 02:16 39.88929 -75.96914 18583 ft 356 kts 275°
2026-05-07 02:16 39.89193 -76.00078 19374 ft 353 kts 274°
2026-05-07 02:16 39.89459 -76.03259 20177 ft 351 kts 274°
2026-05-07 02:17 39.89633 -76.05357 20705 ft 349 kts 274°
2026-05-07 02:17 39.89979 -76.09529 21625 ft 350 kts 274°
2026-05-07 02:17 39.90240 -76.12677 21943 ft 348 kts 274°
2026-05-07 02:17 39.90412 -76.14775 21968 ft 351 kts 274°
2026-05-07 02:18 39.90751 -76.18952 21970 ft 347 kts 274°
2026-05-07 02:18 39.90879 -76.21036 21977 ft 348 kts 272°
2026-05-07 02:18 39.91021 -76.24207 21969 ft 348 kts 272°
2026-05-07 02:18 39.91143 -76.27367 21966 ft 348 kts 271°
2026-05-07 02:19 39.91261 -76.30482 21980 ft 348 kts 272°
2026-05-07 02:19 39.91386 -76.33658 21973 ft 348 kts 272°
2026-05-07 02:19 39.91513 -76.36773 21974 ft 348 kts 272°
2026-05-07 02:19 39.91643 -76.39924 21972 ft 348 kts 272°
2026-05-07 02:20 39.91776 -76.43088 21979 ft 348 kts 272°
2026-05-07 02:20 39.91909 -76.46257 21972 ft 349 kts 272°
2026-05-07 02:20 39.92040 -76.49381 21957 ft 349 kts 272°
2026-05-07 02:20 39.92172 -76.52551 21972 ft 348 kts 271°
2026-05-07 02:21 39.92301 -76.55665 21968 ft 347 kts 271°
2026-05-07 02:21 39.92431 -76.58818 21963 ft 346 kts 271°
2026-05-07 02:21 39.92559 -76.61949 21959 ft 345 kts 271°
2026-05-07 02:21 39.92686 -76.65072 21960 ft 344 kts 271°
2026-05-07 02:22 39.92812 -76.68186 21968 ft 344 kts 271°
2026-05-07 02:22 39.92936 -76.71304 21965 ft 344 kts 271°
2026-05-07 02:22 39.93057 -76.74384 21969 ft 344 kts 271°
2026-05-07 02:22 39.93177 -76.77514 21966 ft 345 kts 271°
2026-05-07 02:23 39.93295 -76.80638 21969 ft 346 kts 271°
2026-05-07 02:23 39.93415 -76.83776 21957 ft 346 kts 271°
2026-05-07 02:23 39.93534 -76.86924 21932 ft 347 kts 271°
2026-05-07 02:23 39.93651 -76.90044 21885 ft 347 kts 271°
2026-05-07 02:24 39.93768 -76.93185 21847 ft 345 kts 271°
2026-05-07 02:24 39.93883 -76.96277 21852 ft 344 kts 271°
2026-05-07 02:24 39.93998 -76.99397 21845 ft 343 kts 271°
2026-05-07 02:24 39.94112 -77.02518 21844 ft 342 kts 271°
2026-05-07 02:25 39.94224 -77.05596 21835 ft 342 kts 271°
2026-05-07 02:25 39.94335 -77.08690 21847 ft 341 kts 271°
2026-05-07 02:25 39.94447 -77.11797 21850 ft 342 kts 271°
2026-05-07 02:25 39.94559 -77.14867 21845 ft 342 kts 271°
2026-05-07 02:26 39.94673 -77.17972 21841 ft 342 kts 271°
2026-05-07 02:26 39.94787 -77.21090 21850 ft 343 kts 271°
2026-05-07 02:26 39.94899 -77.24162 21858 ft 343 kts 271°
2026-05-07 02:26 39.95012 -77.27281 21846 ft 343 kts 271°
2026-05-07 02:27 39.95122 -77.30390 21856 ft 342 kts 271°
2026-05-07 02:27 39.95224 -77.33449 21855 ft 341 kts 271°
2026-05-07 02:27 39.95326 -77.36545 21846 ft 341 kts 271°
2026-05-07 02:27 39.95426 -77.39616 21845 ft 341 kts 271°
2026-05-07 02:28 39.95526 -77.42705 21839 ft 341 kts 271°
2026-05-07 02:28 39.95624 -77.45805 21835 ft 341 kts 270°
2026-05-07 02:28 39.95715 -77.48865 21857 ft 340 kts 271°
2026-05-07 02:28 39.95808 -77.51954 21847 ft 341 kts 270°
2026-05-07 02:29 39.95901 -77.55057 21854 ft 341 kts 270°
2026-05-07 02:29 39.95992 -77.58145 21851 ft 341 kts 270°
2026-05-07 02:29 39.96083 -77.61238 21868 ft 341 kts 270°
2026-05-07 02:29 39.96172 -77.64296 21857 ft 340 kts 270°
2026-05-07 02:30 39.96260 -77.67381 21850 ft 338 kts 270°
2026-05-07 02:30 39.96347 -77.70418 21855 ft 337 kts 270°
2026-05-07 02:30 39.96433 -77.73484 21858 ft 337 kts 270°
2026-05-07 02:30 39.96519 -77.76538 21855 ft 336 kts 270°
2026-05-07 02:31 39.96603 -77.79557 21852 ft 336 kts 270°
2026-05-07 02:31 39.96687 -77.82613 21848 ft 336 kts 270°
2026-05-07 02:31 39.96772 -77.85670 21859 ft 336 kts 270°
2026-05-07 02:31 39.96861 -77.88684 21871 ft 337 kts 270°
2026-05-07 02:32 39.96964 -77.91753 21854 ft 338 kts 271°
2026-05-07 02:32 39.97069 -77.94795 21864 ft 338 kts 271°
2026-05-07 02:32 39.97171 -77.97866 21866 ft 338 kts 270°
2026-05-07 02:32 39.97259 -78.00927 21865 ft 337 kts 270°
2026-05-07 02:33 39.97342 -78.03960 21864 ft 336 kts 270°
2026-05-07 02:33 39.97424 -78.07021 21857 ft 336 kts 270°
2026-05-07 02:33 39.97504 -78.10032 21858 ft 335 kts 270°
2026-05-07 02:33 39.97586 -78.13084 21853 ft 335 kts 270°
2026-05-07 02:34 39.97655 -78.15697 21851 ft 334 kts 270°
2026-05-07 02:36 39.97659 -78.15830 21857 ft 334 kts 270°
2026-05-07 02:36 39.97738 -78.18820 21850 ft 335 kts 270°
2026-05-07 02:36 39.97817 -78.21849 21851 ft 335 kts 270°
2026-05-07 02:37 39.97896 -78.24885 21864 ft 335 kts 270°
2026-05-07 02:37 39.97974 -78.27934 21868 ft 335 kts 270°
2026-05-07 02:37 39.98052 -78.30987 21869 ft 336 kts 270°
2026-05-07 02:37 39.98128 -78.34006 21865 ft 336 kts 270°
2026-05-07 02:38 39.98204 -78.37067 21868 ft 336 kts 270°
2026-05-07 02:38 39.98280 -78.40117 21870 ft 337 kts 270°
2026-05-07 02:38 39.98355 -78.43172 21879 ft 336 kts 270°
2026-05-07 02:38 39.98429 -78.46207 21868 ft 335 kts 270°
2026-05-07 02:39 39.98502 -78.49248 21864 ft 335 kts 269°
2026-05-07 02:39 39.98574 -78.52289 21868 ft 335 kts 270°
2026-05-07 02:39 39.98645 -78.55322 21861 ft 334 kts 269°
2026-05-07 02:39 39.98715 -78.58308 21878 ft 333 kts 270°
2026-05-07 02:40 39.98785 -78.61341 21878 ft 334 kts 270°
2026-05-07 02:40 39.98853 -78.64345 21872 ft 334 kts 270°
2026-05-07 02:40 39.98921 -78.67389 21869 ft 335 kts 270°
2026-05-07 02:40 39.98989 -78.70451 21899 ft 336 kts 269°
2026-05-07 02:41 39.99055 -78.73469 21888 ft 335 kts 269°
2026-05-07 02:41 39.99121 -78.76522 21889 ft 335 kts 270°
2026-05-07 02:41 39.99186 -78.79564 21880 ft 334 kts 270°
2026-05-07 02:41 39.99250 -78.82556 21879 ft 333 kts 269°
2026-05-07 02:42 39.99313 -78.85581 21878 ft 332 kts 269°
2026-05-07 02:42 39.99375 -78.88555 21598 ft 321 kts 270°
2026-05-07 02:42 39.99434 -78.91375 21338 ft 307 kts 269°
2026-05-07 02:42 39.99490 -78.94108 21079 ft 294 kts 269°
2026-05-07 02:43 39.99542 -78.96743 20818 ft 283 kts 270°
2026-05-07 02:43 39.99592 -78.99241 20591 ft 274 kts 269°
2026-05-07 02:43 39.99640 -79.01695 20329 ft 266 kts 269°
2026-05-07 02:43 39.99685 -79.04056 20090 ft 260 kts 269°
2026-05-07 02:44 39.99729 -79.06410 19877 ft 258 kts 269°
2026-05-07 02:44 39.99772 -79.08747 19633 ft 256 kts 269°
2026-05-07 02:44 39.99815 -79.11061 19400 ft 254 kts 270°
2026-05-07 02:44 39.99857 -79.13347 19175 ft 255 kts 270°
2026-05-07 02:45 39.99899 -79.15692 18947 ft 260 kts 270°
2026-05-07 02:45 39.99941 -79.18071 18717 ft 263 kts 270°
2026-05-07 02:45 39.99983 -79.20426 18487 ft 262 kts 270°
2026-05-07 02:45 40.00026 -79.22813 18261 ft 262 kts 270°
2026-05-07 02:46 40.00067 -79.25177 17961 ft 261 kts 270°
2026-05-07 02:46 40.00108 -79.27536 17630 ft 256 kts 270°
2026-05-07 02:46 40.00147 -79.29816 17283 ft 252 kts 270°
2026-05-07 02:46 40.00187 -79.32101 16910 ft 250 kts 270°
2026-05-07 02:47 40.00223 -79.34354 16576 ft 246 kts 270°
2026-05-07 02:47 40.00259 -79.36565 16218 ft 246 kts 269°
2026-05-07 02:47 40.00296 -79.38795 15851 ft 245 kts 270°
2026-05-07 02:47 40.00606 -79.40988 15493 ft 248 kts 284°
2026-05-07 02:48 40.01369 -79.43030 15107 ft 256 kts 296°
2026-05-07 02:48 40.02478 -79.44881 14713 ft 260 kts 300°
2026-05-07 02:48 40.03646 -79.46650 14372 ft 258 kts 301°
2026-05-07 02:48 40.04829 -79.48422 14012 ft 257 kts 301°
2026-05-07 02:49 40.05999 -79.50185 13675 ft 256 kts 301°
2026-05-07 02:49 40.07149 -79.51928 13308 ft 256 kts 301°
2026-05-07 02:49 40.08310 -79.53699 12940 ft 256 kts 301°
2026-05-07 02:49 40.09454 -79.55451 12603 ft 254 kts 301°
2026-05-07 02:50 40.10598 -79.57204 12257 ft 253 kts 301°
2026-05-07 02:50 40.11738 -79.58955 11919 ft 251 kts 301°
2026-05-07 02:50 40.12866 -79.60691 11583 ft 248 kts 300°
2026-05-07 02:50 40.13958 -79.62439 11175 ft 250 kts 299°
2026-05-07 02:51 40.15022 -79.64153 11204 ft 245 kts 299°
2026-05-07 02:51 40.16122 -79.65942 11224 ft 258 kts 299°
2026-05-07 02:51 40.17258 -79.67816 11223 ft 263 kts 299°
2026-05-07 02:51 40.18382 -79.69664 11134 ft 259 kts 299°
2026-05-07 02:52 40.19496 -79.71487 10954 ft 252 kts 300°
2026-05-07 02:52 40.20588 -79.73262 10711 ft 248 kts 300°
2026-05-07 02:52 40.21673 -79.75030 10365 ft 248 kts 300°
2026-05-07 02:52 40.22743 -79.76783 9999 ft 250 kts 299°
2026-05-07 02:53 40.23831 -79.78578 9635 ft 250 kts 300°
2026-05-07 02:53 40.24906 -79.80351 9446 ft 246 kts 300°
2026-05-07 02:53 40.25736 -79.82205 9214 ft 233 kts 278°
2026-05-07 02:53 40.26020 -79.84269 9080 ft 234 kts 279°
2026-05-07 02:54 40.26538 -79.86316 8936 ft 238 kts 284°
2026-05-07 02:54 40.27126 -79.88355 8828 ft 240 kts 285°
2026-05-07 02:54 40.27723 -79.90419 8700 ft 242 kts 285°
2026-05-07 02:54 40.28314 -79.92485 8567 ft 242 kts 285°
2026-05-07 02:55 40.28890 -79.94527 8454 ft 242 kts 285°
2026-05-07 02:55 40.29472 -79.96607 8342 ft 242 kts 285°
2026-05-07 02:55 40.30049 -79.98689 8215 ft 242 kts 285°
2026-05-07 02:55 40.30621 -80.00768 8095 ft 242 kts 285°
2026-05-07 02:56 40.31185 -80.02824 7990 ft 242 kts 285°
2026-05-07 02:56 40.31753 -80.04908 7866 ft 242 kts 285°
2026-05-07 02:56 40.32320 -80.06993 7758 ft 242 kts 285°
2026-05-07 02:56 40.32887 -80.09077 7643 ft 242 kts 285°
2026-05-07 02:57 40.33445 -80.11134 7531 ft 244 kts 285°
2026-05-07 02:57 40.34017 -80.13240 7414 ft 243 kts 285°
2026-05-07 02:57 40.34583 -80.15335 7295 ft 244 kts 285°
2026-05-07 02:57 40.35148 -80.17439 7185 ft 245 kts 286°
2026-05-07 02:58 40.35710 -80.19517 7053 ft 245 kts 286°
2026-05-07 02:58 40.36278 -80.21628 6933 ft 245 kts 287°
2026-05-07 02:58 40.36847 -80.23741 6828 ft 244 kts 287°
2026-05-07 02:58 40.37415 -80.25853 6709 ft 245 kts 287°
2026-05-07 02:59 40.37975 -80.27946 6581 ft 247 kts 287°
2026-05-07 02:59 40.38550 -80.30080 6468 ft 248 kts 287°
2026-05-07 02:59 40.39128 -80.32233 6343 ft 250 kts 288°
2026-05-07 02:59 40.39710 -80.34400 6216 ft 251 kts 288°
2026-05-07 03:00 40.40277 -80.36517 6094 ft 247 kts 288°
2026-05-07 03:00 40.40828 -80.38643 5968 ft 243 kts 283°
2026-05-07 03:00 40.41009 -80.40834 5944 ft 240 kts 272°
2026-05-07 03:00 40.41051 -80.43011 5787 ft 241 kts 271°
2026-05-07 03:01 40.41075 -80.45190 5595 ft 234 kts 271°
2026-05-07 03:01 40.41093 -80.47280 5411 ft 228 kts 271°
2026-05-07 03:01 40.41102 -80.49346 5240 ft 224 kts 271°
2026-05-07 03:01 40.41105 -80.51380 5055 ft 221 kts 273°
2026-05-07 03:02 40.41502 -80.53314 4869 ft 221 kts 303°
2026-05-07 03:02 40.42624 -80.54583 4684 ft 215 kts 337°
2026-05-07 03:02 40.44100 -80.54778 4518 ft 216 kts 11°
2026-05-07 03:02 40.45450 -80.53939 4356 ft 215 kts 29°
2026-05-07 03:03 40.46694 -80.52862 4191 ft 218 kts 31°
2026-05-07 03:03 40.47811 -80.51496 3989 ft 225 kts 54°
2026-05-07 03:03 40.48321 -80.50301 3894 ft 226 kts 60°
2026-05-07 03:03 40.49186 -80.47793 3624 ft 227 kts 76°
2026-05-07 03:04 40.49222 -80.46405 3507 ft 222 kts 94°
2026-05-07 03:04 40.49130 -80.44450 3329 ft 210 kts 89°
2026-05-07 03:04 40.49104 -80.42577 3131 ft 199 kts 89°
2026-05-07 03:04 40.49069 -80.40750 3011 ft 201 kts 89°
2026-05-07 03:05 40.49037 -80.38937 2964 ft 199 kts 89°
2026-05-07 03:05 40.48995 -80.37183 2953 ft 182 kts 90°
2026-05-07 03:05 40.48951 -80.35554 2733 ft 172 kts 89°
2026-05-07 03:05 40.48909 -80.34038 2534 ft 160 kts 88°
2026-05-07 03:06 40.48871 -80.32650 2330 ft 147 kts 89°
2026-05-07 03:06 40.48838 -80.31358 2130 ft 137 kts 89°
2026-05-07 03:06 40.48806 -80.30134 1930 ft 131 kts 88°
2026-05-07 03:06 40.48772 -80.28919 1758 ft 132 kts 89°
2026-05-07 03:07 40.48743 -80.27713 1528 ft 134 kts 87°
2026-05-07 03:07 40.48723 -80.26493 1402 ft 135 kts 88°
2026-05-07 03:07 40.48682 -80.25249 1195 ft 135 kts 88°
2026-05-07 03:07 40.48650 -80.24109 1152 ft 112 kts 92°
2026-05-07 03:08 40.48630 -80.23267 1147 ft 53 kts 91°
2026-05-07 03:08 40.48697 -80.22989 1151 ft 27 kts 61°
2026-05-07 03:08 40.48721 -80.22932 1152 ft 0 kts 61°
2026-05-07 03:09 40.48724 -80.22929 1152 ft 6 kts 43°
2026-05-07 03:09 40.48773 -80.22969 1153 ft 11 kts 295°
2026-05-07 03:09 40.48783 -80.23072 1153 ft 11 kts 270°
2026-05-07 03:10 40.48783 -80.23174 1152 ft 11 kts 273°
2026-05-07 03:10 40.48787 -80.23281 1152 ft 13 kts 272°
2026-05-07 03:10 40.48792 -80.23422 1152 ft 16 kts 272°
2026-05-07 03:10 40.48796 -80.23564 1152 ft 15 kts 272°
2026-05-07 03:11 40.48799 -80.23699 1152 ft 15 kts 272°
2026-05-07 03:11 40.48803 -80.23830 1153 ft 14 kts 272°
2026-05-07 03:11 40.48808 -80.23955 1153 ft 13 kts 280°
2026-05-07 03:11 40.48874 -80.24006 1152 ft 12 kts
2026-05-07 03:12 40.48963 -80.24002 1150 ft 13 kts
2026-05-07 03:12 40.49050 -80.23998 1152 ft 13 kts
2026-05-07 03:12 40.49137 -80.23994 1154 ft 12 kts
2026-05-07 03:12 40.49203 -80.24026 1154 ft 11 kts 291°
2026-05-07 03:13 40.49209 -80.24121 1154 ft 10 kts 272°
2026-05-07 03:13 40.49221 -80.24173 1153 ft 6 kts 302°
2026-05-07 03:13 40.49255 -80.24225 1154 ft 7 kts 330°
2026-05-07 03:13 40.49290 -80.24229 1154 ft 1 kts